This is the latest recevied weather packets stored in our database for station/object K3RTA-2. If no packets are shown the sender has not sent any weather packets the latest 10 day(s).
| Time | Temp. | Humidity | Pressure | Rain* | Wind** | Luminosity | Snow |
|---|---|---|---|---|---|---|---|
| 1777318206 | 17.78° C | 50% | 1023.6 hPa | 0 mm | - | - | - |
| 1777317904 | 17.78° C | 48% | 1023.6 hPa | 0 mm | - | - | - |
| 1777317304 | 18.33° C | 49% | 1023.4 hPa | 0 mm | - | - | - |
| 1777315504 | 18.33° C | 50% | 1023.6 hPa | 0 mm | - | - | - |
| 1777312504 | 17.78° C | 53% | 1024.1 hPa | 0 mm | - | - | - |
| 1777311305 | 17.22° C | 52% | 1024 hPa | 0 mm | - | - | - |
| 1777311005 | 17.22° C | 52% | 1024.1 hPa | 0 mm | - | - | - |
| 1777309504 | 17.22° C | 54% | 1024.1 hPa | 0 mm | - | - | - |
| 1777308904 | 16.67° C | 55% | 1024.1 hPa | 0 mm | - | - | - |
| 1777307106 | 17.22° C | 56% | 1024.3 hPa | 0 mm | - | - | - |
| 1777306804 | 16.67° C | 55% | 1024.3 hPa | 0 mm | - | - | - |
| 1777302304 | 15° C | 54% | 1024.8 hPa | 0 mm | - | - | - |
| 1777301104 | 14.44° C | 55% | 1024.8 hPa | 0 mm | - | - | - |
| 1777299904 | 13.89° C | 58% | 1024.8 hPa | 0 mm | - | - | - |
| 1777296605 | 12.78° C | 66% | 1024.5 hPa | 0 mm | - | - | - |
| 1777295704 | 12.78° C | 69% | 1024.2 hPa | 0 mm | - | - | - |
| 1777294804 | 11.67° C | 80% | 1024.1 hPa | 0 mm | - | - | - |
| 1777293905 | 10.56° C | 85% | 1023.8 hPa | 0 mm | - | - | - |
| 1777293606 | 10.56° C | 88% | 1023.7 hPa | 0 mm | - | - | - |
| 1777291504 | 7.78° C | 98% | 1023.7 hPa | 0 mm | - | - | - |
| 1777290305 | 6.11° C | 98% | 1023.6 hPa | 0 mm | - | - | - |
| 1777289705 | 6.11° C | 99% | 1023.5 hPa | 0 mm | - | - | - |
| 1777289404 | 6.11° C | 99% | 1023.4 hPa | 0 mm | - | - | - |
| 1777288804 | 3.89° C | 98% | 1023.3 hPa | 0 mm | - | - | - |
| 1777287604 | 2.78° C | 98% | 1023 hPa | 0 mm | - | - | - |
* Rain latest hour (hover to see other rain measurements)
** Current wind speed in m/s (hover to see current wind gust speed)